Weather History for Keene, NH

Change the Weather History Date:

Monday, October 8, 2012

  Actual Average Record
Temperature  
Mean Temperature 47 °F -  
Max Temperature 53 °F 65 °F 81 °F (1970)
Min Temperature 39 °F 37 °F 12 °F (1964)
Degree Days  
Heating Degree Days 18    
Moisture  
Dew Point 40 °F    
Average Humidity 79    
Maximum Humidity 93    
Minimum Humidity 54    
Precipitation  
Precipitation 0.02 in - - ()
Sea Level Pressure  
Sea Level Pressure 30.20 in    
Wind  
Wind Speed 1 mph (SW)    
Max Wind Speed 5 mph    
Max Gust Speed -    
Visibility 9 miles    
Events      
Averages and records for this station are not official NWS values.
T = Trace of Precipitation, MM = Missing Value Source: NWS Daily Summary

Daily Weather History Graph

Daily Weather History Graph

Search for Another Location

Airport:

Trip Planner

Search our weather history database for the weather conditions in past years. The results will help you decide how hot, cold, wet, or windy it might be!

Date:

Astronomy

Oct. 08, 2012 Rise Set
Actual Time 6:54 AM EDT 6:17 PM EDT
Civil Twilight 6:26 AM EDT 6:45 PM EDT
Nautical Twilight 5:53 AM EDT 7:18 PM EDT
Astronomical Twilight 5:20 AM EDT 7:51 PM EDT
Moon No Moon Rise 2:13 PM EDT (10/8)
Length of Visible Light 12h 19m
Length of Day
11h 22m
Waning Gibbous, 46% of the Moon is Illuminated
Oct 8
Waning Gibbous
Oct 15
New
Oct 21
First Quarter
Oct 29
Full
Nov 6
Last Quarter

Hourly Weather History & Observations

Time (EDT) Temp. Windchill Dew Point Humidity Pressure Visibility Wind Dir Wind Speed Gust Speed Precip Events Conditions
12:15 AM 46.4 °F 45.2 °F 42.8 °F 87% 30.07 in 10.0 mi SW 3.5 mph - 0.01 in   Overcast
12:35 AM 46.4 °F - 42.8 °F 87% 30.07 in 10.0 mi Calm Calm - 0.01 in   Overcast
12:55 AM 44.6 °F - 42.8 °F 93% 30.08 in 10.0 mi Calm Calm - 0.02 in   Overcast
1:15 AM 44.6 °F - 42.8 °F 93% 30.08 in 10.0 mi Calm Calm - N/A   Mostly Cloudy
1:35 AM 44.6 °F - 42.8 °F 93% 30.08 in 10.0 mi Calm Calm - N/A   Mostly Cloudy
1:55 AM 44.6 °F - 42.8 °F 93% 30.09 in 10.0 mi Calm Calm - N/A   Overcast
2:15 AM 44.6 °F - 42.8 °F 93% 30.08 in 9.0 mi Calm Calm - N/A   Mostly Cloudy
2:55 AM 42.8 °F - 41.0 °F 93% 30.07 in 0.2 mi Calm Calm - N/A   Overcast
3:15 AM 42.8 °F 41.1 °F 41.0 °F 93% 30.08 in 0.2 mi South 3.5 mph - N/A   Overcast
3:35 AM 42.8 °F - 41.0 °F 93% 30.08 in 0.5 mi Calm Calm - N/A   Overcast
3:55 AM 42.8 °F 41.1 °F 41.0 °F 93% 30.09 in 2.0 mi SSW 3.5 mph - N/A   Overcast
4:15 AM 42.8 °F - 41.0 °F 93% 30.09 in 1.8 mi Calm Calm - N/A   Overcast
4:35 AM 42.8 °F 40.1 °F 41.0 °F 93% 30.10 in 10.0 mi SSW 4.6 mph - N/A   Overcast
4:55 AM 42.8 °F 40.1 °F 41.0 °F 93% 30.11 in 10.0 mi South 4.6 mph - N/A   Overcast
5:15 AM 42.8 °F 41.1 °F 41.0 °F 93% 30.12 in 9.0 mi South 3.5 mph - N/A   Overcast
5:55 AM 42.8 °F - 41.0 °F 93% 30.11 in 10.0 mi Calm Calm - N/A   Overcast
6:15 AM 42.8 °F - 39.2 °F 87% 30.11 in - Calm Calm - N/A   Unknown
6:35 AM 41.0 °F - 39.2 °F 93% 30.12 in 8.0 mi Calm Calm - N/A   Overcast
6:55 AM 41.0 °F - 39.2 °F 93% 30.13 in 10.0 mi Calm Calm - N/A   Mostly Cloudy
7:15 AM 42.8 °F - 39.2 °F 87% 30.15 in 1.5 mi Calm Calm - N/A   Overcast
7:35 AM 42.8 °F - 39.2 °F 87% 30.16 in 0.5 mi Calm Calm - N/A   Overcast
8:15 AM 42.8 °F - 41.0 °F 93% 30.19 in 10.0 mi Calm Calm - N/A   Overcast
8:35 AM 42.8 °F - 39.2 °F 87% 30.20 in 10.0 mi Calm Calm - N/A   Overcast
8:55 AM 44.6 °F - 41.0 °F 87% 30.20 in 10.0 mi Calm Calm - N/A   Overcast
9:15 AM 44.6 °F - 42.8 °F 93% 30.20 in 10.0 mi Calm Calm - N/A   Mostly Cloudy
9:35 AM 46.4 °F - 42.8 °F 87% 30.20 in 10.0 mi Calm Calm - N/A   Mostly Cloudy
9:55 AM 46.4 °F - 41.0 °F 81% 30.21 in 10.0 mi Calm Calm - N/A   Partly Cloudy
10:15 AM 46.4 °F - 41.0 °F 81% 30.21 in 10.0 mi Calm Calm - N/A   Partly Cloudy
10:35 AM 48.2 °F - 42.8 °F 82% 30.22 in 10.0 mi Calm Calm - N/A   Partly Cloudy
10:55 AM 48.2 °F - 42.8 °F 82% 30.23 in 10.0 mi WNW 3.5 mph - N/A   Mostly Cloudy
11:15 AM 48.2 °F - 39.2 °F 71% 30.24 in 10.0 mi WNW 3.5 mph - N/A   Overcast
11:35 AM 50.0 °F - 37.4 °F 62% 30.24 in 10.0 mi WNW 4.6 mph - N/A   Overcast
11:55 AM 50.0 °F - 37.4 °F 62% 30.24 in 10.0 mi Calm Calm - N/A   Overcast
12:15 PM 51.8 °F - 37.4 °F 58% 30.24 in 10.0 mi Calm Calm - N/A   Overcast
12:35 PM 51.8 °F - 37.4 °F 58% 30.24 in 10.0 mi Calm Calm - N/A   Mostly Cloudy
12:55 PM 53.6 °F - 37.4 °F 54% 30.23 in 10.0 mi Calm Calm - N/A   Scattered Clouds
1:15 PM 51.8 °F - 37.4 °F 58% 30.22 in 10.0 mi NNE 4.6 mph - N/A   Overcast
1:35 PM 51.8 °F - 37.4 °F 58% 30.22 in 10.0 mi Calm Calm - N/A   Overcast
1:55 PM 53.6 °F - 37.4 °F 54% 30.22 in 10.0 mi Calm Calm - N/A   Overcast
2:15 PM 53.6 °F - 37.4 °F 54% 30.22 in 10.0 mi Calm Calm - N/A   Overcast
2:35 PM 53.6 °F - 37.4 °F 54% 30.23 in 10.0 mi Calm Calm - N/A   Overcast
2:55 PM 53.6 °F - 37.4 °F 54% 30.23 in 10.0 mi ENE 3.5 mph - N/A   Mostly Cloudy
3:15 PM 53.6 °F - 37.4 °F 54% 30.24 in 10.0 mi Calm Calm - N/A   Clear
3:35 PM 53.6 °F - 37.4 °F 54% 30.23 in 10.0 mi SSW 3.5 mph - N/A   Partly Cloudy
3:55 PM 53.6 °F - 37.4 °F 54% 30.23 in 10.0 mi Calm Calm - N/A   Partly Cloudy
4:15 PM 53.6 °F - 37.4 °F 54% 30.23 in 10.0 mi Calm Calm - N/A   Mostly Cloudy
4:35 PM 53.6 °F - 37.4 °F 54% 30.23 in 10.0 mi Calm Calm - N/A   Overcast
4:55 PM 53.6 °F - 37.4 °F 54% 30.23 in 10.0 mi Calm Calm - N/A   Mostly Cloudy
5:15 PM 53.6 °F - 37.4 °F 54% 30.24 in 10.0 mi Calm Calm - N/A   Mostly Cloudy
5:35 PM 53.6 °F - 39.2 °F 58% 30.25 in 10.0 mi Calm Calm - N/A   Overcast
5:55 PM 51.8 °F - 42.8 °F 71% 30.24 in 10.0 mi Calm Calm - N/A   Overcast
6:15 PM 50.0 °F - 42.8 °F 76% 30.25 in 10.0 mi Calm Calm - N/A   Mostly Cloudy
6:35 PM 48.2 °F - 42.8 °F 82% 30.26 in 10.0 mi Calm Calm - N/A   Partly Cloudy
6:55 PM 48.2 °F - 42.8 °F 82% 30.27 in 10.0 mi Calm Calm - N/A   Clear
7:15 PM 46.4 °F - 42.8 °F 87% 30.28 in 10.0 mi Calm Calm - N/A   Clear
7:35 PM 46.4 °F 45.2 °F 42.8 °F 87% 30.28 in 10.0 mi South 3.5 mph - N/A   Clear
7:55 PM 46.4 °F - 42.8 °F 87% 30.28 in 10.0 mi Calm Calm - N/A   Clear
8:15 PM 44.6 °F - 42.8 °F 93% 30.27 in 10.0 mi Calm Calm - N/A   Clear
8:55 PM 44.6 °F - 41.0 °F 87% 30.28 in 10.0 mi Calm Calm - N/A   Clear
9:35 PM 42.8 °F - 39.2 °F 87% 30.29 in 10.0 mi Calm Calm - N/A   Clear
9:55 PM 42.8 °F - 39.2 °F 87% 30.29 in 10.0 mi Calm Calm - N/A   Clear
10:15 PM 42.8 °F - 39.2 °F 87% 30.30 in 10.0 mi Calm Calm - N/A   Clear
10:35 PM 42.8 °F - 39.2 °F 87% 30.29 in 10.0 mi Calm Calm - N/A   Clear
10:55 PM 41.0 °F - 39.2 °F 93% 30.30 in 7.0 mi Calm Calm - N/A   Clear
11:15 PM 41.0 °F - 39.2 °F 93% 30.31 in 9.0 mi Calm Calm - N/A   Clear
11:55 PM 39.2 °F - 37.4 °F 93% 30.30 in 10.0 mi Calm Calm - N/A   Clear